Location: Praha
(50.0830°N, 14.4670°E)
Time: 22:37:21
(UTC+02:00)

ISS - Pass Details

Date: 22 September 2019
Orbit: 411 x 421 km, 51.6° (Epoch: 19 September)

Event Time Altitude Azimuth Distance (km) Brightness Sun altitude
Rises 21:22:47 0° 254° (WSW) 2,340 0.7 -22.5°
Reaches altitude 10° 21:24:52 10° 254° (WSW) 1,479 -0.4 -22.8°
Enters shadow 21:26:56 35° 255° (WSW) 680 -2.4 -23.1°
